Location: Unspecified
(0.0000°N, 0.0000°E)
Time: 07:55:31
(UTC+01:00)

NOAA 12 - Visible Passes

Search period start: 01 November 2014 00:00
Search period end: 11 November 2014 00:00
Orbit: 796 x 816 km, 98.7° (Epoch: 31 October)

Date Brightness Start Highest point End Pass type
(mag) Time Alt. Az. Time Alt. Az. Time Alt. Az.
01 Nov 5.6 19:10:55 10° ESE 19:13:43 14° ENE 19:16:30 10° NE visible
01 Nov 5.5 20:48:24 10° SSW 20:53:13 36° WSW 20:58:03 10° NW visible
02 Nov 4.3 20:23:09 10° S 20:28:28 72° WSW 20:33:45 10° NNW visible
03 Nov 4.1 19:58:28 10° SSE 20:03:42 58° ENE 20:08:54 10° N visible
04 Nov 4.9 19:34:23 10° SE 19:38:56 29° ENE 19:43:27 10° NNE visible
04 Nov 6.6 21:14:54 10° SW 21:18:26 18° WSW 21:21:58 10° WNW visible
05 Nov 5.6 19:11:20 10° ESE 19:14:11 15° ENE 19:17:01 10° NE visible
05 Nov 5.6 20:48:52 10° SSW 20:53:41 35° WSW 20:58:29 10° NW visible
06 Nov 4.3 20:23:37 10° S 20:28:55 71° WSW 20:34:12 10° NNW visible
07 Nov 4.1 19:58:55 10° SSE 20:04:09 58° ENE 20:09:21 10° N visible
08 Nov 4.8 19:34:49 10° SE 19:39:23 29° ENE 19:43:56 10° NNE visible
08 Nov 6.6 21:15:23 10° SW 21:18:53 18° WSW 21:22:23 10° WNW visible
09 Nov 5.6 19:11:44 10° ESE 19:14:38 15° ENE 19:17:31 10° NE visible
09 Nov 5.6 20:49:20 10° SSW 20:54:08 35° WSW 20:58:56 10° NW visible
10 Nov 4.3 20:24:04 10° S 20:29:22 70° WSW 20:34:39 10° NNW visible
